• In Italy
  • List of Countries
  • For 7 days
  • Water Temperature
  • Satellite Maps
  • Weather Map
  • Weather Widgets
  • user-avatar
    Login

    Hourly Weather Qala i Naw

    Today, 19 October, Thursday

    Time Temperature Precipitation Wind Pressure Humidity
    00:00 +11°C° 0 mm 1 mps 686 mmHg 48%
    01:00 +11°C° 0 mm 1 mps 686 mmHg 48%
    02:00 +10°C° 0 mm 1 mps 686 mmHg 49%
    03:00 +10°C° 0 mm 1 mps 686 mmHg 49%
    04:00 +9°C° 0 mm 1 mps 686 mmHg 51%
    05:00 +10°C° 0 mm 1 mps 686 mmHg 49%
    06:00 +10°C° 0 mm 1 mps 686 mmHg 47%
    07:00 +11°C° 0 mm 1 mps 687 mmHg 45%
    08:00 +12°C° 0 mm 2 mps 687 mmHg 39%
    09:00 +14°C° 0 mm 2 mps 687 mmHg 33%
    10:00 +16°C° 0 mm 3 mps 687 mmHg 28%
    11:00 +17°C° 0 mm 3 mps 687 mmHg 25%
    12:00 +18°C° 0 mm 4 mps 687 mmHg 23%
    13:00 +19°C° 0 mm 4 mps 686 mmHg 21%
    14:00 +19°C° 0 mm 4 mps 686 mmHg 21%
    15:00 +18°C° 0 mm 4 mps 686 mmHg 22%
    16:00 +18°C° 0 mm 4 mps 686 mmHg 22%
    17:00 +17°C° 0 mm 3 mps 686 mmHg 25%
    18:00 +14°C° 0 mm 3 mps 686 mmHg 28%
    19:00 +14°C° 0 mm 2 mps 685 mmHg 31%
    20:00 +13°C° 0 mm 2 mps 685 mmHg 32%
    21:00 +13°C° 0 mm 2 mps 685 mmHg 34%
    22:00 +12°C° 0 mm 1 mps 685 mmHg 35%
    23:00 +12°C° 0 mm 1 mps 684 mmHg 36%

    Tomorrow, 20 October, Friday

    Time Temperature Precipitation Wind Pressure Humidity
    00:00 +11°C° 0 mm 1 mps 684 mmHg 36%
    01:00 +11°C° 0 mm 1 mps 684 mmHg 37%
    02:00 +10°C° 0 mm 1 mps 683 mmHg 38%
    03:00 +10°C° 0 mm 1 mps 683 mmHg 38%
    04:00 +9°C° 0 mm 1 mps 682 mmHg 39%
    05:00 +10°C° 0 mm 1 mps 682 mmHg 37%
    06:00 +11°C° 0 mm 1 mps 682 mmHg 35%
    07:00 +11°C° 0 mm 1 mps 683 mmHg 33%
    08:00 +14°C° 0 mm 1 mps 683 mmHg 29%
    09:00 +16°C° 0 mm 1 mps 683 mmHg 24%
    10:00 +19°C° 0 mm 2 mps 683 mmHg 19%
    11:00 +20°C° 0 mm 2 mps 683 mmHg 18%
    12:00 +21°C° 0 mm 3 mps 682 mmHg 16%
    13:00 +22°C° 0 mm 3 mps 682 mmHg 14%
    14:00 +22°C° 0 mm 3 mps 682 mmHg 14%
    15:00 +22°C° 0 mm 3 mps 681 mmHg 15%
    16:00 +22°C° 0 mm 3 mps 681 mmHg 15%
    17:00 +19°C° 0 mm 2 mps 681 mmHg 18%
    18:00 +18°C° 0 mm 1 mps 681 mmHg 21%
    19:00 +14°C° 0 mm 0 mps 681 mmHg 23%
    20:00 +14°C° 0 mm 0 mps 681 mmHg 24%
    21:00 +13°C° 0 mm 0 mps 681 mmHg 24%
    22:00 +13°C° 0 mm 0 mps 680 mmHg 24%
    23:00 +12°C° 0 mm 0 mps 680 mmHg 25%

    Day after tomorrow, 21 October, Saturday

    Time Temperature Precipitation Wind Pressure Humidity
    00:00 +12°C° 0 mm 0 mps 680 mmHg 25%
    01:00 +11°C° 0 mm 0 mps 680 mmHg 26%
    02:00 +11°C° 0 mm 0 mps 679 mmHg 27%
    03:00 +10°C° 0 mm 0 mps 679 mmHg 28%
    04:00 +10°C° 0 mm 0 mps 679 mmHg 29%
    05:00 +11°C° 0 mm 0 mps 680 mmHg 28%
    06:00 +11°C° 0 mm 0 mps 680 mmHg 27%
    07:00 +12°C° 0 mm 0 mps 681 mmHg 27%
    08:00 +15°C° 0 mm 1 mps 681 mmHg 23%
    09:00 +18°C° 0 mm 1 mps 682 mmHg 20%
    10:00 +19°C° 0 mm 2 mps 682 mmHg 17%
    11:00 +20°C° 0 mm 2 mps 682 mmHg 16%
    12:00 +21°C° 0 mm 3 mps 682 mmHg 15%
    13:00 +21°C° 0 mm 3 mps 681 mmHg 14%
    14:00 +21°C° 0 mm 3 mps 681 mmHg 15%
    15:00 +21°C° 0 mm 3 mps 681 mmHg 15%
    16:00 +20°C° 0 mm 3 mps 681 mmHg 15%
    17:00 +19°C° 0 mm 2 mps 681 mmHg 18%
    18:00 +17°C° 0 mm 2 mps 681 mmHg 20%
    19:00 +16°C° 0 mm 1 mps 681 mmHg 23%
    20:00 +15°C° 0 mm 1 mps 681 mmHg 24%
    21:00 +14°C° 0 mm 1 mps 681 mmHg 26%
    22:00 +13°C° 0 mm 1 mps 681 mmHg 27%
    23:00 +13°C° 0 mm 1 mps 681 mmHg 28%

    22 October, Sunday

    Time Temperature Precipitation Wind Pressure Humidity
    00:00 +11°C° 0 mm 0 mps 680 mmHg 29%
    01:00 +11°C° 0 mm 0 mps 680 mmHg 30%
    02:00 +10°C° 0 mm 0 mps 680 mmHg 31%
    03:00 +10°C° 0 mm 0 mps 680 mmHg 31%
    04:00 +9°C° 0 mm 0 mps 679 mmHg 32%
    05:00 +10°C° 0 mm 0 mps 680 mmHg 30%
    06:00 +11°C° 0 mm 0 mps 680 mmHg 29%
    07:00 +11°C° 0 mm 0 mps 680 mmHg 28%
    08:00 +15°C° 0 mm 1 mps 681 mmHg 24%
    09:00 +18°C° 0 mm 1 mps 681 mmHg 20%
    10:00 +19°C° 0 mm 2 mps 681 mmHg 16%
    11:00 +20°C° 0 mm 2 mps 681 mmHg 15%
    12:00 +21°C° 0 mm 3 mps 681 mmHg 14%
    13:00 +22°C° 0 mm 3 mps 680 mmHg 13%
    14:00 +22°C° 0 mm 3 mps 680 mmHg 13%
    15:00 +21°C° 0 mm 3 mps 680 mmHg 14%
    16:00 +21°C° 0 mm 3 mps 680 mmHg 14%
    17:00 +19°C° 0 mm 2 mps 680 mmHg 16%
    18:00 +19°C° 0 mm 1 mps 680 mmHg 19%
    19:00 +15°C° 0 mm 0 mps 680 mmHg 21%
    20:00 +14°C° 0 mm 0 mps 680 mmHg 22%
    21:00 +14°C° 0 mm 0 mps 680 mmHg 22%
    22:00 +14°C° 0 mm 1 mps 680 mmHg 23%
    23:00 +14°C° 0 mm 1 mps 680 mmHg 23%

    23 October, Monday

    Time Temperature Precipitation Wind Pressure Humidity
    00:00 +13°C° 0 mm 1 mps 679 mmHg 23%
    01:00 +13°C° 0 mm 1 mps 679 mmHg 23%
    02:00 +13°C° 0 mm 1 mps 679 mmHg 23%
    03:00 +12°C° 0 mm 1 mps 679 mmHg 23%
    04:00 +12°C° 0 mm 1 mps 679 mmHg 23%
    05:00 +13°C° 0 mm 1 mps 680 mmHg 22%
    06:00 +13°C° 0 mm 1 mps 680 mmHg 21%
    07:00 +14°C° 0 mm 1 mps 680 mmHg 20%
    08:00 +18°C° 0 mm 1 mps 681 mmHg 17%
    09:00 +20°C° 0 mm 1 mps 682 mmHg 14%
    10:00 +23°C° 0 mm 1 mps 682 mmHg 12%
    11:00 +24°C° 0 mm 2 mps 682 mmHg 11%
    12:00 +25°C° 0 mm 2 mps 682 mmHg 11%
    13:00 +26°C° 0 mm 3 mps 682 mmHg 10%
    14:00 +25°C° 0 mm 3 mps 682 mmHg 10%
    15:00 +25°C° 0 mm 3 mps 682 mmHg 11%
    16:00 +25°C° 0 mm 3 mps 682 mmHg 11%
    17:00 +23°C° 0 mm 2 mps 682 mmHg 13%
    18:00 +20°C° 0 mm 1 mps 682 mmHg 16%
    19:00 +18°C° 0 mm 1 mps 683 mmHg 18%
    20:00 +18°C° 0 mm 1 mps 683 mmHg 19%
    21:00 +16°C° 0 mm 1 mps 683 mmHg 19%
    22:00 +15°C° 0 mm 1 mps 683 mmHg 20%
    23:00 +15°C° 0 mm 1 mps 683 mmHg 21%

    24 October, Tuesday

    Time Temperature Precipitation Wind Pressure Humidity
    00:00 +15°C° 0 mm 1 mps 683 mmHg 21%
    01:00 +14°C° 0 mm 1 mps 683 mmHg 22%
    02:00 +14°C° 0 mm 1 mps 683 mmHg 22%
    03:00 +13°C° 0 mm 1 mps 684 mmHg 23%
    04:00 +13°C° 0 mm 1 mps 684 mmHg 24%
    05:00 +14°C° 0 mm 1 mps 684 mmHg 23%
    06:00 +14°C° 0 mm 1 mps 684 mmHg 23%
    07:00 +14°C° 0 mm 1 mps 685 mmHg 22%
    08:00 +18°C° 0 mm 1 mps 685 mmHg 19%
    09:00 +19°C° 0 mm 2 mps 686 mmHg 16%
    10:00 +21°C° 0 mm 2 mps 686 mmHg 13%
    11:00 +23°C° 0 mm 2 mps 686 mmHg 13%
    12:00 +24°C° 0 mm 2 mps 685 mmHg 12%
    13:00 +25°C° 0 mm 3 mps 685 mmHg 11%
    14:00 +25°C° 0 mm 3 mps 685 mmHg 11%
    15:00 +25°C° 0 mm 3 mps 685 mmHg 11%
    16:00 +25°C° 0 mm 3 mps 684 mmHg 11%
    17:00 +23°C° 0 mm 2 mps 684 mmHg 13%
    18:00 +21°C° 0 mm 1 mps 684 mmHg 15%
    19:00 +19°C° 0 mm 1 mps 684 mmHg 17%
    20:00 +18°C° 0 mm 1 mps 684 mmHg 17%
    21:00 +16°C° 0 mm 1 mps 684 mmHg 18%
    22:00 +16°C° 0 mm 1 mps 684 mmHg 18%
    23:00 +15°C° 0 mm 1 mps 684 mmHg 18%
    Show more